Content
SEND FEEDBACK

Daily
Averages
Monthly
Summary
United States of America

WILMINGTON, NORTH CAROLINA


Home > North America > United States > North Carolina
Elevation: 72 feet     Latitude: 34 16N     Longitude: 077 54W

WEATHER
 
SELECT A DAY
Number of Records: 209,081;   Date Range: 1/1/95 - 9/16/14
 
SHARE

PRINT THIS DATA

[ ← Previous Day ]
WEATHER ALMANAC - JUNE 12, 2013
[ Next Day → ]
[ °C ]   °F
Weather ElementAverageHighLow
Temperature80.8 °F91 °F (1:53 pm)69.8 °F (5:31 am)
Dewpoint70.2 °F75 °F (7:53 pm)66 °F (11:53 am)
Humidity73.2 %97 % (2:53 am)44 % (1:53 pm)
Barometer29.95 in29.99 in (6:53 am)29.90 in (6:53 pm)
Wind Speed4.9 mph11.5 mph (6:53 pm)
Weather ElementAverage
Visibility8.6 mi
Wind DirectionSSE (172 °)

Weather ElementTotal
Precipitation---
Cooling Degree Days15.4 (Base 65)
Growing Degree Days30.4 (Base 50)
Averaged from 25 records on June 12, 2013
WEATHER CONDITIONS BREAKOUT
WIND DIRECTION BREAKOUT
WEATHER BY HOUR - JUNE 12, 2013
[ °C ]   °F
Local TimeTemperatureDewpointHumidityBarometerVisibilityWind DirectionWind SpeedGust SpeedPrecipitationEventsConditions
1:53 AM73.9 °F72.0 °F93 %29.96 in7.0 miCalmClear
2:53 AM72.0 °F71.1 °F97 %29.95 in6.0 miCalmClear
3:53 AM71.1 °F70.0 °F96 %29.95 in6.0 miSW (220°)3.5 mphClear
4:53 AM71.1 °F69.1 °F93 %29.95 in7.0 miCalmClear
5:21 AM71.6 °F69.8 °F94 %29.95 in2.0 miCalmClear
5:31 AM69.8 °F68.0 °F94 %29.95 in7.0 miCalmClear
5:53 AM70.0 °F68.0 °F93 %29.95 in5.0 miCalmClear
6:53 AM72.0 °F71.1 °F97 %29.99 in6.0 miWSW (250°)3.5 mphClear
7:53 AM75.9 °F72.0 °F87 %29.99 in10.0 miWest (270°)5.8 mphClear
8:53 AM80.1 °F72.0 °F76 %29.99 in10.0 miWest (260°)3.5 mphClear
9:53 AM84.0 °F70.0 °F63 %29.98 in10.0 miWNW (300°)4.6 mphClear
10:53 AM87.1 °F66.9 °F51 %29.98 in10.0 miWSW (250°)6.9 mphClear
11:53 AM88.0 °F66.0 °F48 %29.99 in10.0 miWSW (240°)6.9 mphClear
12:53 PM89.1 °F66.0 °F46 %29.97 in10.0 miCalmClear
1:53 PM91.0 °F66.0 °F44 %29.96 in10.0 miWSW (250°)8.1 mphClear
2:53 PM91.0 °F66.0 °F44 %29.94 in10.0 miWSW (250°)9.2 mphClear
3:53 PM90.0 °F66.0 °F45 %29.94 in10.0 miWSW (240°)8.1 mphClear
4:53 PM91.0 °F68.0 °F47 %29.91 in10.0 miSW (230°)9.2 mphClear
5:53 PM90.0 °F71.1 °F54 %29.91 in10.0 miWSW (240°)9.2 mphClear
6:53 PM87.1 °F73.9 °F65 %29.90 in10.0 miSW (230°)11.5 mphClear
7:53 PM84.0 °F75.0 °F74 %29.91 in10.0 miSW (220°)6.9 mphClear
8:53 PM82.0 °F73.9 °F76 %29.92 in10.0 miSSW (210°)6.9 mphClear
9:53 PM80.1 °F73.9 °F81 %29.91 in10.0 miSSW (200°)6.9 mphClear
10:53 PM80.1 °F75.0 °F85 %29.91 in10.0 miSW (220°)5.8 mphClear
11:53 PM79.0 °F75.0 °F88 %29.90 in9.0 miSW (220°)6.9 mphClear
Hourly data recorded from KILM, located miles away from Wilmington, North Carolina







STORIES FROM OUR PARTNERS